sat.trackr.live / text

‹ back to catalog

STARLINK-36553

NORAD 67506 · 2026-012P

PAYLOAD ACTIVE UNKNOWN

§ Identity

Operator
Country
US
Launch date
2026-01-18
Launch site
AFETR
Launch vehicle
Mass (kg)
RCS (m²)

Purposes: comms

External: N2YO · Heavens-Above · Gunter

§ Orbital elements

Epoch: 2026-05-24T23:31:27.394752Z

Period
94.27 min
Inclination
42.9987°
Eccentricity
0.0001191
Mean motion
15.27595690 rev/d
Perigee alt
482.2 km
Apogee alt
483.8 km
Semi-major
6,861.1 km
B*
1.0215e-3
RAAN
243.1871°
Arg perigee
291.1706°
Mean anomaly
68.9018°
Rev number
1,943

§ Raw data

STARLINK-365531 67506U 26012P   26144.98017818  .00027967  00000+0  10215-2 0  99952 67506  42.9987 243.1871 0001191 291.1706  68.9018 15.27595690 19437

JSON: /api/v1/satellites/67506 · /tle

For live sub-satellite position, see the globe view (requires WebGL).

§ Visibility from observer

Set your observer location to see the next 7 days of passes ≥ 10°. The values pass through the URL so the page stays shareable.

No JS? Fill the form by hand. The geolocation button needs JavaScript.